Time,TemperatureF,DewpointF,PressureIn,WindDirection,WindDirectionDegrees,WindSpeedMPH,WindSpeedGustMPH,Humidity,HourlyPrecipIn,Conditions,Clouds,dailyrainin,SoftwareType,DateUTC
2013-04-15 00:43:00,51.1,45.8,29.87,ESE,112,1.7,-999.0,82,-99.99,,,0.00,Acu-Link.com,2013-04-15 07:43:00,
2013-04-15 00:59:00,50.5,45.8,29.88,WSW,247,3.7,-999.0,84,-99.99,,,0.00,Acu-Link.com,2013-04-15 07:59:00,
2013-04-15 01:14:00,50.5,46.2,29.88,SSW,202,1.1,-999.0,85,-99.99,,,0.00,Acu-Link.com,2013-04-15 08:14:00,
2013-04-15 01:29:00,50.7,46.4,29.89,SW,225,3.7,-999.0,85,-99.99,,,0.00,Acu-Link.com,2013-04-15 08:29:00,
2013-04-15 01:44:00,50.5,47.1,29.87,NW,315,3.7,-999.0,88,-99.99,,,0.00,Acu-Link.com,2013-04-15 08:44:00,
2013-04-15 01:59:00,50.5,47.1,29.87,WSW,247,2.2,-999.0,88,-99.99,,,0.00,Acu-Link.com,2013-04-15 08:59:00,
2013-04-15 02:14:00,50.5,47.7,29.87,West,270,0.0,-999.0,90,-99.99,,,0.00,Acu-Link.com,2013-04-15 09:14:00,
2013-04-15 02:30:00,50.7,47.9,29.88,West,270,0.0,-999.0,90,-99.99,,,0.00,Acu-Link.com,2013-04-15 09:30:00,
2013-04-15 02:45:00,51.1,48.3,29.86,SSE,157,0.0,-999.0,90,-99.99,,,0.00,Acu-Link.com,2013-04-15 09:45:00,
2013-04-15 03:00:00,50.9,47.8,29.87,NNW,337,3.7,-999.0,89,-99.99,,,0.00,Acu-Link.com,2013-04-15 10:00:00,
2013-04-15 03:15:00,49.6,46.2,29.87,NNW,337,0.0,-999.0,88,-99.99,,,0.00,Acu-Link.com,2013-04-15 10:15:00,
2013-04-15 03:30:00,48.4,45.0,29.88,NNW,337,6.3,-999.0,88,-99.99,,,0.00,Acu-Link.com,2013-04-15 10:30:00,
2013-04-15 04:01:00,46.8,42.2,29.90,SW,225,4.2,-999.0,84,-99.99,,,0.00,Acu-Link.com,2013-04-15 11:01:00,
2013-04-15 04:16:00,46.0,41.7,29.90,SSE,157,1.7,-999.0,85,-99.99,,,0.00,Acu-Link.com,2013-04-15 11:16:00,
2013-04-15 04:32:00,45.3,41.4,29.89,WSW,247,0.0,-999.0,86,-99.99,,,0.00,Acu-Link.com,2013-04-15 11:32:00,
2013-04-15 04:47:00,45.1,41.2,29.90,WSW,247,0.0,-999.0,86,-99.99,,,0.00,Acu-Link.com,2013-04-15 11:47:00,
2013-04-15 05:02:00,43.7,40.7,29.89,WSW,247,0.0,-999.0,89,-99.99,,,0.00,Acu-Link.com,2013-04-15 12:02:00,
2013-04-15 05:17:00,43.3,40.6,29.90,WSW,247,0.0,-999.0,90,-99.99,,,0.00,Acu-Link.com,2013-04-15 12:17:00,
2013-04-15 05:33:00,43.2,40.8,29.90,WSW,247,0.0,-999.0,91,-99.99,,,0.00,Acu-Link.com,2013-04-15 12:33:00,
2013-04-15 05:48:00,43.9,40.6,29.90,West,270,0.0,-999.0,88,-99.99,,,0.00,Acu-Link.com,2013-04-15 12:48:00,
2013-04-15 06:03:00,42.6,40.2,29.91,ESE,112,0.0,-999.0,91,-99.99,,,0.00,Acu-Link.com,2013-04-15 13:03:00,
2013-04-15 06:18:00,42.3,39.9,29.92,ESE,112,0.0,-999.0,91,-99.99,,,0.00,Acu-Link.com,2013-04-15 13:18:00,
2013-04-15 06:33:00,41.7,39.3,29.92,ESE,112,0.0,-999.0,91,-99.99,,,0.00,Acu-Link.com,2013-04-15 13:33:00,
2013-04-15 07:04:00,41.9,39.2,29.93,SSE,157,3.7,-999.0,90,-99.99,,,0.00,Acu-Link.com,2013-04-15 14:04:00,
2013-04-15 07:19:00,43.2,39.0,29.94,SSE,157,2.2,-999.0,85,-99.99,,,0.00,Acu-Link.com,2013-04-15 14:19:00,
2013-04-15 07:34:00,44.8,38.4,29.95,WSW,247,2.7,-999.0,78,-99.99,,,0.00,Acu-Link.com,2013-04-15 14:34:00,
2013-04-15 07:49:00,46.2,38.0,29.95,West,270,3.2,-999.0,73,-99.99,,,0.00,Acu-Link.com,2013-04-15 14:49:00,
2013-04-15 08:05:00,46.6,38.1,29.94,WSW,247,0.0,-999.0,72,-99.99,,,0.00,Acu-Link.com,2013-04-15 15:05:00,
2013-04-15 08:20:00,47.7,37.7,29.95,SE,135,2.7,-999.0,68,-99.99,,,0.00,Acu-Link.com,2013-04-15 15:20:00,
2013-04-15 08:35:00,48.2,38.1,29.95,West,270,7.3,-999.0,68,-99.99,,,0.00,Acu-Link.com,2013-04-15 15:35:00,
2013-04-15 08:50:00,49.1,39.0,29.96,NNW,337,3.7,-999.0,68,-99.99,,,0.00,Acu-Link.com,2013-04-15 15:50:00,
2013-04-15 09:06:00,50.9,38.8,29.95,WNW,292,4.7,-999.0,63,-99.99,,,0.00,Acu-Link.com,2013-04-15 16:06:00,
2013-04-15 09:36:00,54.7,39.3,29.97,WNW,292,4.2,-999.0,56,-99.99,,,0.00,Acu-Link.com,2013-04-15 16:36:00,
2013-04-15 10:22:00,54.7,37.9,29.95,WSW,247,3.2,-999.0,53,-99.99,,,0.00,Acu-Link.com,2013-04-15 17:22:00,
2013-04-15 10:37:00,53.2,37.0,29.94,SSE,157,3.2,-999.0,54,-99.99,,,0.00,Acu-Link.com,2013-04-15 17:37:00,
2013-04-15 10:52:00,54.1,38.3,29.95,ESE,112,3.2,-999.0,55,-99.99,,,0.00,Acu-Link.com,2013-04-15 17:52:00,
2013-04-15 11:07:00,54.1,36.9,29.95,SSE,157,2.2,-999.0,52,-99.99,,,0.00,Acu-Link.com,2013-04-15 18:07:00,
2013-04-15 11:22:00,54.1,37.8,29.95,SW,225,5.3,-999.0,54,-99.99,,,0.00,Acu-Link.com,2013-04-15 18:22:00,
2013-04-15 11:38:00,54.3,38.5,29.96,NNE,22,7.8,-999.0,55,-99.99,,,0.00,Acu-Link.com,2013-04-15 18:38:00,
2013-04-15 11:53:00,54.3,38.5,29.94,NW,315,4.2,-999.0,55,-99.99,,,0.00,Acu-Link.com,2013-04-15 18:53:00,
2013-04-15 12:08:00,55.8,38.9,29.94,SSW,202,6.3,-999.0,53,-99.99,,,0.00,Acu-Link.com,2013-04-15 19:08:00,
2013-04-15 12:23:00,56.7,37.8,29.94,South,180,6.8,-999.0,49,-99.99,,,0.00,Acu-Link.com,2013-04-15 19:23:00,
2013-04-15 12:38:00,57.4,37.9,29.95,ESE,112,6.3,-999.0,48,-99.99,,,0.00,Acu-Link.com,2013-04-15 19:38:00,
2013-04-15 13:09:00,59.4,37.5,29.95,SW,225,5.8,-999.0,44,-99.99,,,0.00,Acu-Link.com,2013-04-15 20:09:00,
2013-04-15 13:24:00,59.4,37.5,29.94,South,180,7.3,-999.0,44,-99.99,,,0.00,Acu-Link.com,2013-04-15 20:24:00,
2013-04-15 13:39:00,60.3,37.7,29.95,SW,225,6.8,-999.0,43,-99.99,,,0.00,Acu-Link.com,2013-04-15 20:39:00,
2013-04-15 13:54:00,61.3,38.6,29.95,West,270,8.9,-999.0,43,-99.99,,,0.00,Acu-Link.com,2013-04-15 20:54:00,
2013-04-15 14:09:00,60.8,37.6,29.94,WSW,247,6.8,-999.0,42,-99.99,,,0.00,Acu-Link.com,2013-04-15 21:09:00,
2013-04-15 14:25:00,61.2,37.3,29.95,NW,315,8.3,-999.0,41,-99.99,,,0.00,Acu-Link.com,2013-04-15 21:25:00,
2013-04-15 14:40:00,61.3,36.1,29.94,WNW,292,8.3,-999.0,39,-99.99,,,0.00,Acu-Link.com,2013-04-15 21:40:00,
2013-04-15 14:55:00,59.0,35.3,29.93,WSW,247,6.3,-999.0,41,-99.99,,,0.00,Acu-Link.com,2013-04-15 21:55:00,
2013-04-15 15:10:00,58.6,37.3,29.92,NNE,22,4.2,-999.0,45,-99.99,,,0.00,Acu-Link.com,2013-04-15 22:10:00,
2013-04-15 15:25:00,58.6,37.3,29.93,North,0,12.5,-999.0,45,-99.99,,,0.00,Acu-Link.com,2013-04-15 22:25:00,
2013-04-15 15:41:00,57.4,35.7,29.91,NW,315,5.3,-999.0,44,-99.99,,,0.00,Acu-Link.com,2013-04-15 22:41:00,
2013-04-15 15:56:00,57.4,35.1,29.91,WSW,247,4.2,-999.0,43,-99.99,,,0.00,Acu-Link.com,2013-04-15 22:56:00,
2013-04-15 16:11:00,57.4,34.5,29.90,WNW,292,4.2,-999.0,42,-99.99,,,0.00,Acu-Link.com,2013-04-15 23:11:00,
2013-04-15 16:26:00,56.1,35.1,29.90,NW,315,13.5,-999.0,45,-99.99,,,0.00,Acu-Link.com,2013-04-15 23:26:00,
2013-04-15 16:42:00,55.4,34.4,29.89,NNW,337,10.9,-999.0,45,-99.99,,,0.00,Acu-Link.com,2013-04-15 23:42:00,
2013-04-15 16:57:00,55.4,33.9,29.90,South,180,5.3,-999.0,44,-99.99,,,0.00,Acu-Link.com,2013-04-15 23:57:00,
2013-04-15 17:12:00,55.6,34.6,29.89,WNW,292,3.2,-999.0,45,-99.99,,,0.00,Acu-Link.com,2013-04-16 00:12:00,
2013-04-15 17:27:00,53.6,34.9,29.89,NNE,22,10.4,-999.0,49,-99.99,,,0.00,Acu-Link.com,2013-04-16 00:27:00,
2013-04-15 17:42:00,54.5,35.2,29.89,ESE,112,6.8,-999.0,48,-99.99,,,0.00,Acu-Link.com,2013-04-16 00:42:00,
2013-04-15 17:57:00,53.4,35.7,29.89,West,270,3.2,-999.0,51,-99.99,,,0.00,Acu-Link.com,2013-04-16 00:57:00,
2013-04-15 18:12:00,52.7,36.1,29.88,NNW,337,7.3,-999.0,53,-99.99,,,0.00,Acu-Link.com,2013-04-16 01:12:00,
2013-04-15 18:27:00,51.6,35.5,29.89,ESE,112,5.8,-999.0,54,-99.99,,,0.00,Acu-Link.com,2013-04-16 01:27:00,
2013-04-15 18:43:00,52.2,35.6,29.88,North,0,6.8,-999.0,53,-99.99,,,0.00,Acu-Link.com,2013-04-16 01:43:00,
2013-04-15 18:58:00,51.3,35.2,29.89,WNW,292,5.8,-999.0,54,-99.99,,,0.00,Acu-Link.com,2013-04-16 01:58:00,
2013-04-15 19:13:00,49.1,34.1,29.90,ESE,112,4.2,-999.0,56,-99.99,,,0.00,Acu-Link.com,2013-04-16 02:13:00,
2013-04-15 19:29:00,48.2,34.1,29.89,SW,225,5.8,-999.0,58,-99.99,,,0.00,Acu-Link.com,2013-04-16 02:29:00,
2013-04-15 19:44:00,47.7,34.1,29.90,NNW,337,8.3,-999.0,59,-99.99,,,0.00,Acu-Link.com,2013-04-16 02:44:00,
2013-04-15 19:59:00,47.1,34.4,29.91,SW,225,4.2,-999.0,61,-99.99,,,0.00,Acu-Link.com,2013-04-16 02:59:00,
2013-04-15 20:14:00,46.8,34.9,29.90,NW,315,4.7,-999.0,63,-99.99,,,0.00,Acu-Link.com,2013-04-16 03:14:00,
2013-04-15 20:29:00,46.4,35.7,29.90,WNW,292,5.3,-999.0,66,-99.99,,,0.00,Acu-Link.com,2013-04-16 03:29:00,
2013-04-15 20:44:00,46.0,35.3,29.92,SE,135,5.3,-999.0,66,-99.99,,,0.00,Acu-Link.com,2013-04-16 03:44:00,
2013-04-15 20:59:00,46.4,36.0,29.92,SE,135,7.8,-999.0,67,-99.99,,,0.00,Acu-Link.com,2013-04-16 03:59:00,
2013-04-15 21:15:00,46.4,36.8,29.93,WNW,292,3.2,-999.0,69,-99.99,,,0.00,Acu-Link.com,2013-04-16 04:15:00,
2013-04-15 21:30:00,46.0,37.1,29.94,NNW,337,5.3,-999.0,71,-99.99,,,0.00,Acu-Link.com,2013-04-16 04:30:00,
2013-04-15 21:45:00,46.2,37.7,29.94,NW,315,3.7,-999.0,72,-99.99,,,0.00,Acu-Link.com,2013-04-16 04:45:00,
2013-04-15 22:00:00,46.0,37.1,29.96,NW,315,3.7,-999.0,71,-99.99,,,0.00,Acu-Link.com,2013-04-16 05:00:00,
2013-04-15 22:15:00,46.0,37.1,29.95,ESE,112,3.7,-999.0,71,-99.99,,,0.00,Acu-Link.com,2013-04-16 05:15:00,
2013-04-15 22:30:00,45.7,37.2,29.95,NW,315,1.7,-999.0,72,-99.99,,,0.00,Acu-Link.com,2013-04-16 05:30:00,
2013-04-15 22:45:00,45.5,37.4,29.96,West,270,5.3,-999.0,73,-99.99,,,0.00,Acu-Link.com,2013-04-16 05:45:00,
2013-04-15 23:01:00,45.7,37.5,29.96,West,270,9.9,-999.0,73,-99.99,,,0.00,Acu-Link.com,2013-04-16 06:01:00,
2013-04-15 23:16:00,45.9,37.4,29.96,ESE,112,0.0,-999.0,72,-99.99,,,0.00,Acu-Link.com,2013-04-16 06:16:00,
2013-04-15 23:31:00,45.9,36.7,29.96,NNW,337,1.7,-999.0,70,-99.99,,,0.00,Acu-Link.com,2013-04-16 06:31:00,
2013-04-15 23:47:00,45.7,36.8,29.97,NNW,337,1.7,-999.0,71,-99.99,,,0.00,Acu-Link.com,2013-04-16 06:47:00,